Inver Grove Heights, MN

1:00 PM CDT on August 28, 2016 (GMT -0500)
South Saint Paul Municipal-Fleming

Weather History for KSGS - December, 2011

Change the Weather History Date:

Wednesday, December 21, 2011

  Actual Average (KMSP) Record (KMSP)
Temperature  
Mean Temperature 26 °F 18 °F  
Max Temperature 32 °F 25 °F 56 °F (1877)
Min Temperature 19 °F 11 °F -24 °F (1916)
Degree Days  
Heating Degree Days 40 47  
Month to date heating degree days 923  
Since 1 July heating degree days 2542  
Cooling Degree Days 0 0  
Month to date cooling degree days 0  
Year to date cooling degree days 753  
Moisture  
Dew Point 22 °F    
Average Humidity 85    
Maximum Humidity 94    
Minimum Humidity 66    
Precipitation  
Precipitation 0.00 in 0.04 in 0.71 in (2006)
Month to date precipitation 0.82  
Year to date precipitation 30.27  
Snow  
Snow 0.00 in 0.40 in 5.30 in (1920)
Month to date snowfall 8.3  
Since 1 July snowfall 18.2  
Snow Depth -    
Sea Level Pressure  
Sea Level Pressure 29.75 in    
Wind  
Wind Speed 3 mph (North)    
Max Wind Speed 9 mph    
Max Gust Speed 16 mph    
Visibility 8 miles    
Events Snow    
T = Trace of Precipitation, MM = Missing Value Source: NWS Daily Summary

Daily Weather History Graph

Daily Weather History Graph

Search for Another Location

Airport or City:

Trip Planner

Search our weather history database for the weather conditions in past years. The results will help you decide how hot, cold, wet, or windy it might be!

Date:

Astronomy

Dec. 21, 2011 Rise Set
Actual Time 7:46 AM CST 4:33 PM CST
Civil Twilight 7:12 AM CST 5:07 PM CST
Nautical Twilight 6:35 AM CST 5:44 PM CST
Astronomical Twilight 6:00 AM CST 6:20 PM CST
Moon 4:17 AM CST (12/21) 1:55 PM CST (12/21)
Length of Visible Light 9h 54m
Length of Day
8h 47m
Waning Crescent, 12% of the Moon is Illuminated
Dec 21
Waning Crescent
Dec 24
New
Jan 1
First Quarter
Jan 9
Full
Jan 16
Last Quarter

Hourly Weather History & Observations

Time (CST) Temp. Windchill Dew Point Humidity Pressure Visibility Wind Dir Wind Speed Gust Speed Precip Events Conditions
12:14 AM 22.1 °F 15.9 °F 20.3 °F 93% 29.72 in 4.0 mi SSE 4.6 mph - N/A   Clear
12:34 AM 21.9 °F - 20.3 °F 93% 29.72 in 4.0 mi Calm Calm - N/A   Clear
12:54 AM 20.8 °F 16.0 °F 19.2 °F 93% 29.70 in 4.0 mi SSE 3.5 mph - N/A   Clear
1:13 AM 19.2 °F - 17.4 °F 93% 29.70 in 5.0 mi Calm Calm - N/A   Clear
1:34 AM 21.2 °F 16.4 °F 19.8 °F 94% 29.69 in 5.0 mi SSE 3.5 mph - N/A   Clear
1:54 AM 20.5 °F 15.6 °F 18.7 °F 93% 29.68 in 5.0 mi South 3.5 mph - N/A   Clear
2:14 AM 21.7 °F 17.0 °F 19.9 °F 93% 29.68 in 7.0 mi South 3.5 mph - N/A   Clear
2:33 AM 20.3 °F - 18.3 °F 92% 29.68 in 7.0 mi Calm Calm - N/A   Clear
2:54 AM 22.1 °F 14.7 °F 20.1 °F 92% 29.67 in 7.0 mi SSE 5.8 mph - N/A   Clear
3:14 AM 22.1 °F - 19.6 °F 90% 29.67 in 10.0 mi Calm Calm - N/A   Clear
3:34 AM 21.9 °F 14.5 °F 19.8 °F 91% 29.66 in 7.0 mi SSE 5.8 mph - N/A   Clear
3:54 AM 22.1 °F 15.9 °F 20.1 °F 92% 29.65 in 7.0 mi SSE 4.6 mph - N/A   Clear
4:14 AM 22.1 °F 15.9 °F 19.9 °F 91% 29.65 in 7.0 mi SSE 4.6 mph - N/A   Clear
4:34 AM 22.1 °F 15.9 °F 19.9 °F 91% 29.64 in 7.0 mi SSE 4.6 mph - N/A   Clear
4:54 AM 21.6 °F - 19.4 °F 91% 29.65 in 5.0 mi Calm Calm - N/A   Clear
5:14 AM 21.2 °F - 19.4 °F 93% 29.65 in 7.0 mi Calm Calm - N/A   Clear
5:34 AM 21.0 °F - 19.2 °F 93% 29.65 in 7.0 mi Calm Calm - N/A   Clear
5:54 AM 21.2 °F 16.4 °F 19.4 °F 93% 29.65 in 7.0 mi SSE 3.5 mph - N/A   Clear
6:14 AM 21.2 °F - 19.4 °F 93% 29.64 in 7.0 mi Calm Calm - N/A   Clear
6:34 AM 20.8 °F - 19.0 °F 93% 29.65 in 7.0 mi Calm Calm - N/A   Clear
6:54 AM 20.3 °F - 18.7 °F 93% 29.65 in 7.0 mi Calm Calm - N/A   Clear
7:14 AM 21.2 °F 16.4 °F 19.6 °F 93% 29.64 in 7.0 mi SSE 3.5 mph - N/A   Clear
7:34 AM 21.6 °F - 19.8 °F 93% 29.66 in 7.0 mi Calm Calm - N/A   Clear
7:54 AM 21.6 °F - 19.8 °F 93% 29.66 in 7.0 mi Calm Calm - N/A   Clear
8:14 AM 21.7 °F - 19.9 °F 93% 29.67 in 5.0 mi Calm Calm - N/A   Clear
8:34 AM 22.1 °F - 20.1 °F 92% 29.67 in 5.0 mi Calm Calm - N/A   Clear
8:54 AM 23.4 °F - 21.2 °F 91% 29.67 in 5.0 mi Calm Calm - N/A   Clear
9:14 AM 24.1 °F - 21.9 °F 91% 29.67 in 5.0 mi Calm Calm - N/A   Clear
9:54 AM 25.2 °F - 22.1 °F 88% 29.69 in 7.0 mi Calm Calm - N/A   Clear
10:34 AM 26.2 °F - 23.0 °F 88% 29.69 in 5.0 mi Calm Calm - N/A   Clear
10:54 AM 27.0 °F - 23.5 °F 87% 29.69 in 5.0 mi Calm Calm - N/A   Clear
11:14 AM 27.5 °F - 23.9 °F 86% 29.69 in 7.0 mi Calm Calm - N/A   Clear
11:34 AM 28.4 °F - 24.3 °F 84% 29.69 in 7.0 mi Calm Calm - N/A   Scattered Clouds
12:14 PM 29.5 °F - 22.6 °F 76% 29.69 in 10.0 mi Calm Calm - N/A   Scattered Clouds
12:34 PM 30.2 °F 26.7 °F 23.7 °F 77% 29.70 in 10.0 mi North 3.5 mph - N/A   Mostly Cloudy
12:54 PM 30.7 °F 27.3 °F 23.2 °F 74% 29.70 in 10.0 mi North 3.5 mph - N/A   Mostly Cloudy
1:14 PM 30.2 °F 26.7 °F 23.0 °F 75% 29.70 in 10.0 mi North 3.5 mph - N/A   Mostly Cloudy
1:35 PM 30.9 °F 26.2 °F 22.3 °F 70% 29.71 in 10.0 mi NNE 4.6 mph - N/A   Mostly Cloudy
1:54 PM 31.1 °F 26.4 °F 22.3 °F 70% 29.72 in 10.0 mi North 4.6 mph - N/A   Mostly Cloudy
2:14 PM 31.8 °F 25.4 °F 22.1 °F 67% 29.73 in 10.0 mi NNW 6.9 mph - N/A   Mostly Cloudy
2:34 PM 32.0 °F 26.4 °F 22.3 °F 67% 29.73 in 10.0 mi NNE 5.8 mph - N/A   Overcast
2:54 PM 32.0 °F 28.7 °F 21.9 °F 66% 29.74 in 10.0 mi North 3.5 mph - N/A   Overcast
3:13 PM 32.0 °F 26.4 °F 21.9 °F 66% 29.75 in 10.0 mi North 5.8 mph - N/A   Overcast
3:34 PM 31.3 °F 26.6 °F 22.1 °F 69% 29.76 in 7.0 mi North 4.6 mph - N/A Snow Light Snow
3:54 PM 30.4 °F 23.6 °F 23.7 °F 76% 29.78 in 2.5 mi North 6.9 mph - N/A Snow Light Snow
4:14 PM 29.7 °F 24.7 °F 24.3 °F 80% 29.78 in 2.0 mi North 4.6 mph - N/A Snow Light Snow
4:34 PM 29.3 °F 25.6 °F 25.5 °F 86% 29.79 in 2.5 mi North 3.5 mph - N/A Snow Light Snow
4:54 PM 29.3 °F 24.3 °F 25.7 °F 86% 29.80 in 5.0 mi North 4.6 mph - N/A   Overcast
5:14 PM 29.1 °F - 25.7 °F 87% 29.81 in 7.0 mi Calm Calm - N/A   Overcast
6:34 PM 30.6 °F 27.1 °F 26.4 °F 85% 29.86 in 10.0 mi NNW 3.5 mph - N/A   Overcast
6:54 PM 30.6 °F - 26.6 °F 85% 29.87 in 10.0 mi Calm Calm - N/A   Overcast
7:14 PM 30.2 °F 26.7 °F 26.6 °F 86% 29.88 in 10.0 mi NW 3.5 mph - N/A   Overcast
7:34 PM 30.0 °F 26.5 °F 26.6 °F 87% 29.89 in 10.0 mi NW 3.5 mph - N/A   Mostly Cloudy
7:54 PM 29.8 °F 26.3 °F 26.8 °F 88% 29.90 in 10.0 mi NNW 3.5 mph - N/A   Scattered Clouds
8:14 PM 29.8 °F 26.3 °F 26.6 °F 88% 29.90 in 10.0 mi NW 3.5 mph - N/A   Mostly Cloudy
8:34 PM 30.2 °F - 27.3 °F 89% 29.92 in 10.0 mi Calm Calm - N/A   Overcast
8:54 PM 30.0 °F - 27.1 °F 89% 29.93 in 10.0 mi Calm Calm - N/A   Overcast
9:14 PM 30.4 °F 26.9 °F 27.3 °F 88% 29.95 in 10.0 mi NNW 3.5 mph - N/A   Mostly Cloudy
9:34 PM 31.3 °F 24.7 °F 26.4 °F 82% 29.95 in 10.0 mi NNW 6.9 mph - N/A   Overcast
9:54 PM 31.5 °F 23.5 °F 24.8 °F 76% 29.96 in 10.0 mi North 9.2 mph - N/A   Mostly Cloudy
10:14 PM 31.1 °F 23.1 °F 23.9 °F 75% 29.97 in 10.0 mi North 9.2 mph 16.1 mph N/A   Scattered Clouds
10:34 PM 30.7 °F 23.3 °F 23.0 °F 73% 29.98 in 10.0 mi North 8.1 mph 16.1 mph N/A   Scattered Clouds
10:54 PM 30.2 °F 21.9 °F 21.7 °F 71% 30.00 in 10.0 mi North 9.2 mph - N/A   Clear
11:14 PM 29.7 °F 22.8 °F 21.0 °F 70% 30.02 in 10.0 mi North 6.9 mph - N/A   Clear
11:34 PM 29.3 °F 20.8 °F 20.7 °F 70% 30.03 in 10.0 mi North 9.2 mph - N/A   Clear
11:54 PM 29.1 °F 22.1 °F 20.3 °F 70% 30.04 in 10.0 mi North 6.9 mph - N/A   Clear